Location: Izdebno
(52.6670°N, 16.2170°E)
Time: 20:30:47
(UTC+02:00)

SR - Pass Details

Date: 05 March 2024
Orbit: 577 x 862 km, 66.7° (Epoch: 20 April)

Event Time Altitude Azimuth Distance (km) Brightness Sun altitude
Rises 18:33:33 0° 312° (NW) 3,319 ? -8.6°
Reaches altitude 10° 18:36:39 10° 328° (NNW) 2,335 ? -9.1°
Maximum altitude 18:40:42 21° 18° (NNE) 1,617 ? -9.7°
Enters shadow 18:44:27 10° 67° (ENE) 2,165 ? -10.2°
